Hourly Data Report for March 28, 2011

HALIFAX STANFIELD INT'L A
NOVA SCOTIA

44°52'48.060" N
63°30'00.050" W
145.40 m
8202250
71395
YHZ

Download Data

Hourly Data (March 2011)
Hourly Data Report for March 28, 2011
TIME
LST
Temp Definition
°C
Dew Point Definition
°C
Rel Hum Definition
%
Precip. Amount Definition
mm

Wind Dir Definition
10's deg

Wind Spd Definition
km/h
Visibility Definition
km
Stn Press Definition
kPa
Hmdx Definition


Wind Chill Definition


Weather Definition


00:00 -2.7 -8.4 65   30 20 19.3 97.75   -9 Snow Showers
01:00 -3.8 -8.1 72   29 26 19.3 97.73   -11 Snow Showers
02:00 -4.0 -7.9 74   27 24 19.3 97.72   -11 Snow Showers
03:00 -5.1 -7.4 84   29 22 3.2 97.73   -12 Snow Showers
04:00 -5.7 -8.5 81   28 24 4.8 97.73   -13 Snow Showers
05:00 -6.2 -9.1 80   30 20 16.1 97.78   -13 Snow Showers
06:00 -6.4 -9.0 82   28 19 9.7 97.81   -13 Snow Showers
07:00 -6.3 -9.5 78   25 26 24.1 97.84   -14 Mostly Cloudy
08:00 -6.0 -9.2 78   28 24 24.1 97.88   -13 Mostly Cloudy
09:00 -5.2 -9.3 73   30 33 16.1 97.89   -14 Snow Showers
10:00 -4.4 -8.6 72   30 28 24.1 97.91   -12 Snow Showers
11:00 -2.6 -8.6 63   30 26 24.1 97.90   -9 Mostly Cloudy
12:00 -1.7 -8.1 62   30 33 24.1 97.91   -9 Mostly Cloudy
13:00 -0.1 -8.8 52   29 33 24.1 97.92   -7 Mostly Cloudy
14:00 1.4 -7.8 50   29 33 24.1 97.89     Mostly Cloudy
15:00 1.7 -9.0 45   28 28 24.1 97.93     Mostly Cloudy
16:00 1.3 -9.3 45   28 28 24.1 97.97     Mostly Cloudy
17:00 1.5 -9.2 45   29 28 24.1 98.01     Mostly Cloudy
18:00 0.9 -9.7 45   28 35 24.1 98.07     Mainly Clear
19:00 0.0 -10.0 47   28 15 24.1 98.11   -4 Mainly Clear
20:00 -0.5 -9.7 50   28 19 24.1 98.17   -6 Mainly Clear
21:00 -0.3 -9.6 49   30 22 24.1 98.20   -6 Mainly Clear
22:00 -1.0 -9.6 52   30 17 24.1 98.21   -6 Mainly Clear
23:00 -0.9 -9.7 51   29 20 24.1 98.22   -6 Mainly Clear

Notes on Data Quality.

Legend

  • E = Estimated
  • M = Missing
  • NA = Not Available*
  • [empty] = Indicates an unobserved value
Date modified: